Time,TemperatureF,DewpointF,PressureIn,WindDirection,WindDirectionDegrees,WindSpeedMPH,WindSpeedGustMPH,Humidity,HourlyPrecipIn,Conditions,Clouds,dailyrainin,SoftwareType,DateUTC
2013-05-24 00:00:00,59.6,41.0,29.99,SSE,158,0.4,1.6,50,0.00,,,0.00,WUHU216HW,2013-05-24 07:00:00,
2013-05-24 00:05:00,59.4,40.9,29.99,SSE,158,0.0,1.6,50,0.00,,,0.00,WUHU216HW,2013-05-24 07:05:00,
2013-05-24 00:10:00,59.2,41.1,29.98,SSW,203,0.7,0.9,51,0.00,,,0.00,WUHU216HW,2013-05-24 07:10:00,
2013-05-24 00:15:00,59.0,41.0,29.98,South,180,0.4,0.9,51,0.00,,,0.00,WUHU216HW,2013-05-24 07:15:00,
2013-05-24 00:20:00,58.9,40.8,29.98,South,180,0.4,1.1,51,0.00,,,0.00,WUHU216HW,2013-05-24 07:20:00,
2013-05-24 00:25:00,58.7,40.7,29.98,SSE,158,0.7,1.1,51,0.00,,,0.00,WUHU216HW,2013-05-24 07:25:00,
2013-05-24 00:30:00,58.5,41.0,29.98,SSW,203,0.0,0.9,52,0.00,,,0.00,WUHU216HW,2013-05-24 07:30:00,
2013-05-24 00:35:00,58.3,40.8,29.98,South,180,0.4,0.7,52,0.00,,,0.00,WUHU216HW,2013-05-24 07:35:00,
2013-05-24 00:40:00,58.1,41.1,29.98,SSE,158,0.0,0.4,53,0.00,,,0.00,WUHU216HW,2013-05-24 07:40:00,
2013-05-24 00:46:00,57.8,41.2,29.98,SSE,158,0.0,0.4,54,0.00,,,0.00,WUHU216HW,2013-05-24 07:46:00,
2013-05-24 00:51:00,57.2,40.8,29.98,SSE,158,0.0,0.2,54,0.00,,,0.00,WUHU216HW,2013-05-24 07:51:00,
2013-05-24 00:56:00,57.2,40.8,29.98,SSE,158,0.0,0.2,54,0.00,,,0.00,WUHU216HW,2013-05-24 07:56:00,
2013-05-24 01:01:00,56.9,40.4,29.98,SSE,158,0.0,0.0,54,0.00,,,0.00,WUHU216HW,2013-05-24 08:01:00,
2013-05-24 01:06:00,56.5,40.5,29.98,SSE,158,0.0,0.0,55,0.00,,,0.00,WUHU216HW,2013-05-24 08:06:00,
2013-05-24 01:11:00,56.3,40.3,29.98,SSE,158,0.0,0.0,55,0.00,,,0.00,WUHU216HW,2013-05-24 08:11:00,
2013-05-24 01:16:00,56.2,40.1,29.98,SSE,158,0.0,0.0,55,0.00,,,0.00,WUHU216HW,2013-05-24 08:16:00,
2013-05-24 01:21:00,56.2,40.6,29.98,SSE,158,0.0,0.0,56,0.00,,,0.00,WUHU216HW,2013-05-24 08:21:00,
2013-05-24 01:26:00,56.0,40.4,29.98,SSE,158,0.0,0.0,56,0.00,,,0.00,WUHU216HW,2013-05-24 08:26:00,
2013-05-24 01:31:00,55.8,40.7,29.98,SSE,158,0.0,0.0,57,0.00,,,0.00,WUHU216HW,2013-05-24 08:31:00,
2013-05-24 01:36:00,55.6,40.5,29.98,SSE,158,0.0,0.0,57,0.00,,,0.00,WUHU216HW,2013-05-24 08:36:00,
2013-05-24 01:41:00,55.4,40.3,29.98,SSE,158,0.0,0.0,57,0.00,,,0.00,WUHU216HW,2013-05-24 08:41:00,
2013-05-24 01:46:00,55.3,40.7,29.98,SSE,158,0.0,0.0,58,0.00,,,0.00,WUHU216HW,2013-05-24 08:46:00,
2013-05-24 01:51:00,55.1,40.5,29.98,SSE,158,0.0,0.0,58,0.00,,,0.00,WUHU216HW,2013-05-24 08:51:00,
2013-05-24 01:56:00,55.1,41.0,29.98,SSE,158,0.0,0.4,59,0.00,,,0.00,WUHU216HW,2013-05-24 08:56:00,
2013-05-24 02:01:00,54.9,40.8,29.98,SSE,158,0.0,0.4,59,0.00,,,0.00,WUHU216HW,2013-05-24 09:01:00,
2013-05-24 02:06:00,54.7,41.1,29.98,SSE,158,0.0,0.0,60,0.00,,,0.00,WUHU216HW,2013-05-24 09:06:00,
2013-05-24 02:11:00,54.5,41.0,29.98,SSE,158,0.0,0.0,60,0.00,,,0.00,WUHU216HW,2013-05-24 09:11:00,
2013-05-24 02:17:00,54.4,41.2,29.98,SSE,158,0.0,0.0,61,0.00,,,0.00,WUHU216HW,2013-05-24 09:17:00,
2013-05-24 02:22:00,54.4,41.2,29.98,SSE,158,0.0,0.0,61,0.00,,,0.00,WUHU216HW,2013-05-24 09:22:00,
2013-05-24 02:27:00,54.4,41.2,29.98,SSE,158,0.0,0.0,61,0.00,,,0.00,WUHU216HW,2013-05-24 09:27:00,
2013-05-24 02:32:00,54.0,41.2,29.98,SSE,158,0.0,0.0,62,0.00,,,0.00,WUHU216HW,2013-05-24 09:32:00,
2013-05-24 02:37:00,54.0,41.2,29.98,SSE,158,0.0,0.0,62,0.00,,,0.00,WUHU216HW,2013-05-24 09:37:00,
2013-05-24 02:42:00,53.8,41.5,29.98,SSE,158,0.0,0.0,63,0.00,,,0.00,WUHU216HW,2013-05-24 09:42:00,
2013-05-24 02:47:00,53.6,41.3,29.98,SSE,158,0.0,0.0,63,0.00,,,0.00,WUHU216HW,2013-05-24 09:47:00,
2013-05-24 02:52:00,53.6,41.3,29.98,SSE,158,0.0,0.0,63,0.00,,,0.00,WUHU216HW,2013-05-24 09:52:00,
2013-05-24 02:57:00,53.5,41.6,29.98,SSE,158,0.0,0.0,64,0.00,,,0.00,WUHU216HW,2013-05-24 09:57:00,
2013-05-24 03:02:00,53.3,41.4,29.99,SSE,158,1.1,1.1,64,0.00,,,0.00,WUHU216HW,2013-05-24 10:02:00,
2013-05-24 03:07:00,53.3,41.4,29.99,SSW,203,0.0,1.1,64,0.00,,,0.00,WUHU216HW,2013-05-24 10:07:00,
2013-05-24 03:12:00,53.5,41.9,29.99,South,180,0.4,0.9,65,0.00,,,0.00,WUHU216HW,2013-05-24 10:12:00,
2013-05-24 03:17:00,53.6,42.1,29.99,South,180,0.9,1.3,65,0.00,,,0.00,WUHU216HW,2013-05-24 10:17:00,
2013-05-24 03:22:00,53.6,42.1,29.99,South,180,1.3,1.3,65,0.00,,,0.00,WUHU216HW,2013-05-24 10:22:00,
2013-05-24 03:27:00,53.8,41.9,29.99,South,180,0.0,1.3,64,0.00,,,0.00,WUHU216HW,2013-05-24 10:27:00,
2013-05-24 03:32:00,53.8,41.9,29.99,SSW,203,0.0,1.3,64,0.00,,,0.00,WUHU216HW,2013-05-24 10:32:00,
2013-05-24 03:37:00,53.6,41.8,29.98,SSW,203,0.0,0.7,64,0.00,,,0.00,WUHU216HW,2013-05-24 10:37:00,
2013-05-24 03:43:00,53.6,41.8,29.99,SSW,203,0.0,0.0,64,0.00,,,0.00,WUHU216HW,2013-05-24 10:43:00,
2013-05-24 03:48:00,53.3,41.8,29.98,SSW,203,0.7,0.7,65,0.00,,,0.00,WUHU216HW,2013-05-24 10:48:00,
2013-05-24 03:53:00,53.1,41.6,29.98,South,180,0.4,0.7,65,0.00,,,0.00,WUHU216HW,2013-05-24 10:53:00,
2013-05-24 03:58:00,52.9,41.9,29.98,SSW,203,0.9,0.9,66,0.00,,,0.00,WUHU216HW,2013-05-24 10:58:00,
2013-05-24 04:03:00,53.1,42.0,29.98,SSW,203,0.4,1.8,66,0.00,,,0.00,WUHU216HW,2013-05-24 11:03:00,
2013-05-24 04:08:00,53.1,42.4,29.98,South,180,1.3,1.8,67,0.00,,,0.00,WUHU216HW,2013-05-24 11:08:00,
2013-05-24 04:13:00,53.3,42.2,29.98,SSW,203,0.0,1.3,66,0.00,,,0.00,WUHU216HW,2013-05-24 11:13:00,
2013-05-24 04:18:00,53.3,42.2,29.98,SSW,203,0.0,0.9,66,0.00,,,0.00,WUHU216HW,2013-05-24 11:18:00,
2013-05-24 04:23:00,53.1,42.0,29.98,SSW,203,0.0,0.0,66,0.00,,,0.00,WUHU216HW,2013-05-24 11:23:00,
2013-05-24 04:28:00,52.9,41.9,29.98,SSW,203,0.0,0.0,66,0.00,,,0.00,WUHU216HW,2013-05-24 11:28:00,
2013-05-24 04:33:00,52.7,42.1,29.98,SSW,203,0.0,0.0,67,0.00,,,0.00,WUHU216HW,2013-05-24 11:33:00,
2013-05-24 04:38:00,52.6,42.0,29.98,SSW,203,0.0,0.0,67,0.00,,,0.00,WUHU216HW,2013-05-24 11:38:00,
2013-05-24 04:43:00,52.4,41.8,29.98,NE,45,0.0,0.4,67,0.00,,,0.00,WUHU216HW,2013-05-24 11:43:00,
2013-05-24 04:48:00,52.2,41.9,29.97,NE,45,0.0,0.4,68,0.00,,,0.00,WUHU216HW,2013-05-24 11:48:00,
2013-05-24 04:53:00,52.0,42.2,29.97,NE,45,0.0,0.0,69,0.00,,,0.00,WUHU216HW,2013-05-24 11:53:00,
2013-05-24 04:59:00,51.8,41.7,29.97,NE,45,0.0,0.0,68,0.00,,,0.00,WUHU216HW,2013-05-24 11:59:00,
2013-05-24 05:04:00,51.8,41.7,29.97,NE,45,0.0,0.0,68,0.00,,,0.00,WUHU216HW,2013-05-24 12:04:00,
2013-05-24 05:09:00,51.8,41.7,29.97,NE,45,0.0,0.0,68,0.00,,,0.00,WUHU216HW,2013-05-24 12:09:00,
2013-05-24 05:14:00,51.7,41.5,29.97,NE,45,0.0,0.0,68,0.00,,,0.00,WUHU216HW,2013-05-24 12:14:00,
2013-05-24 05:19:00,51.5,41.3,29.97,NNE,23,0.0,0.0,68,0.00,,,0.00,WUHU216HW,2013-05-24 12:19:00,
2013-05-24 05:24:00,51.5,41.3,29.98,NNE,23,0.0,0.0,68,0.00,,,0.00,WUHU216HW,2013-05-24 12:24:00,
2013-05-24 05:29:00,51.5,41.7,29.98,NNE,23,0.0,0.0,69,0.00,,,0.00,WUHU216HW,2013-05-24 12:29:00,
2013-05-24 05:34:00,51.5,41.7,29.98,NNE,23,0.0,0.0,69,0.00,,,0.00,WUHU216HW,2013-05-24 12:34:00,
2013-05-24 05:39:00,51.3,41.5,29.98,ENE,68,0.0,0.2,69,0.00,,,0.00,WUHU216HW,2013-05-24 12:39:00,
2013-05-24 05:44:00,51.1,41.3,29.98,ENE,68,0.0,0.2,69,0.00,,,0.00,WUHU216HW,2013-05-24 12:44:00,
2013-05-24 05:49:00,51.1,41.8,29.98,ENE,68,0.0,0.0,70,0.00,,,0.00,WUHU216HW,2013-05-24 12:49:00,
2013-05-24 05:54:00,50.9,41.6,29.98,ESE,113,0.0,0.2,70,0.00,,,0.00,WUHU216HW,2013-05-24 12:54:00,
2013-05-24 05:59:00,51.1,41.8,29.98,SSW,203,0.2,0.9,70,0.00,,,0.00,WUHU216HW,2013-05-24 12:59:00,
2013-05-24 06:04:00,51.3,41.9,29.98,SSW,203,0.0,0.9,70,0.00,,,0.00,WUHU216HW,2013-05-24 13:04:00,
2013-05-24 06:09:00,51.3,41.9,29.99,SSW,203,0.0,0.4,70,0.00,,,0.00,WUHU216HW,2013-05-24 13:09:00,
2013-05-24 06:14:00,51.3,42.3,29.99,SSW,203,0.0,0.0,71,0.00,,,0.00,WUHU216HW,2013-05-24 13:14:00,
2013-05-24 06:19:00,51.3,42.3,29.99,South,180,0.0,0.4,71,0.00,,,0.00,WUHU216HW,2013-05-24 13:19:00,
2013-05-24 06:25:00,51.3,42.7,29.99,South,180,1.1,2.0,72,0.00,,,0.00,WUHU216HW,2013-05-24 13:25:00,
2013-05-24 06:30:00,51.5,42.5,29.99,SW,225,1.1,2.5,71,0.00,,,0.00,WUHU216HW,2013-05-24 13:30:00,
2013-05-24 06:35:00,51.8,42.9,29.99,SSW,203,1.6,2.5,71,0.00,,,0.00,WUHU216HW,2013-05-24 13:35:00,
2013-05-24 06:40:00,52.2,43.1,30.00,SSW,203,0.9,1.6,71,0.00,,,0.00,WUHU216HW,2013-05-24 13:40:00,
2013-05-24 06:45:00,53.5,44.3,30.00,SSW,203,0.7,1.8,71,0.00,,,0.00,WUHU216HW,2013-05-24 13:45:00,
2013-05-24 06:50:00,56.0,45.5,30.00,SSW,203,2.5,2.9,68,0.00,,,0.00,WUHU216HW,2013-05-24 13:50:00,
2013-05-24 06:55:00,58.5,46.7,30.00,South,180,0.9,2.9,65,0.00,,,0.00,WUHU216HW,2013-05-24 13:55:00,
2013-05-24 07:00:00,59.4,46.4,30.00,SW,225,2.5,2.7,62,0.00,,,0.00,WUHU216HW,2013-05-24 14:00:00,
2013-05-24 07:05:00,58.5,44.7,30.00,SSW,203,2.2,2.7,60,0.00,,,0.00,WUHU216HW,2013-05-24 14:05:00,
2013-05-24 07:10:00,57.2,43.9,30.00,SSE,158,2.2,4.7,61,0.00,,,0.00,WUHU216HW,2013-05-24 14:10:00,
2013-05-24 07:15:00,56.7,43.8,30.01,SSE,158,0.4,4.7,62,0.00,,,0.00,WUHU216HW,2013-05-24 14:15:00,
2013-05-24 07:20:00,56.3,43.5,30.01,South,180,1.1,1.6,62,0.00,,,0.00,WUHU216HW,2013-05-24 14:20:00,
2013-05-24 07:25:00,56.0,43.6,30.01,SE,135,1.6,1.8,63,0.00,,,0.00,WUHU216HW,2013-05-24 14:25:00,
2013-05-24 07:30:00,56.0,43.6,30.01,South,180,0.9,1.8,63,0.00,,,0.00,WUHU216HW,2013-05-24 14:30:00,
2013-05-24 07:35:00,56.3,43.9,30.01,SSE,158,0.9,2.7,63,0.00,,,0.00,WUHU216HW,2013-05-24 14:35:00,
2013-05-24 07:41:00,56.2,43.8,30.01,SSE,158,1.1,2.7,63,0.00,,,0.00,WUHU216HW,2013-05-24 14:41:00,
2013-05-24 07:46:00,56.2,43.3,30.02,SSW,203,1.3,2.5,62,0.00,,,0.00,WUHU216HW,2013-05-24 14:46:00,
2013-05-24 07:51:00,56.2,43.3,30.02,SSE,158,0.9,2.5,62,0.00,,,0.00,WUHU216HW,2013-05-24 14:51:00,
2013-05-24 07:56:00,56.2,43.8,30.02,West,270,0.4,1.1,63,0.00,,,0.00,WUHU216HW,2013-05-24 14:56:00,
2013-05-24 08:01:00,56.5,43.7,30.02,NNW,338,0.7,1.8,62,0.00,,,0.00,WUHU216HW,2013-05-24 15:01:00,
2013-05-24 08:06:00,56.7,43.8,30.02,SE,135,0.4,1.8,62,0.00,,,0.00,WUHU216HW,2013-05-24 15:06:00,
2013-05-24 08:11:00,56.9,44.0,30.02,SSE,158,2.0,2.0,62,0.00,,,0.00,WUHU216HW,2013-05-24 15:11:00,
2013-05-24 08:16:00,57.1,43.7,30.02,ENE,68,0.4,2.0,61,0.00,,,0.00,WUHU216HW,2013-05-24 15:16:00,
2013-05-24 08:21:00,58.7,45.3,30.02,SE,135,1.6,1.6,61,0.00,,,0.00,WUHU216HW,2013-05-24 15:21:00,
2013-05-24 08:26:00,62.5,48.9,30.02,South,180,0.4,1.6,61,0.00,,,0.00,WUHU216HW,2013-05-24 15:26:00,
2013-05-24 08:31:00,67.3,50.6,30.02,SE,135,0.2,1.1,55,0.00,,,0.00,WUHU216HW,2013-05-24 15:31:00,
2013-05-24 08:36:00,70.9,50.8,30.02,SSE,158,0.9,1.1,49,0.00,,,0.00,WUHU216HW,2013-05-24 15:36:00,
2013-05-24 08:41:00,72.5,50.5,30.02,South,180,0.9,1.3,46,0.00,,,0.00,WUHU216HW,2013-05-24 15:41:00,
2013-05-24 08:46:00,73.1,49.1,30.02,NW,315,0.9,1.3,43,0.00,,,0.00,WUHU216HW,2013-05-24 15:46:00,
2013-05-24 08:51:00,72.9,49.6,30.02,SE,135,0.4,1.1,44,0.00,,,0.00,WUHU216HW,2013-05-24 15:51:00,
2013-05-24 08:57:00,74.5,49.9,30.02,SSW,203,0.9,1.8,42,0.00,,,0.00,WUHU216HW,2013-05-24 15:57:00,
2013-05-24 09:02:00,76.1,50.8,30.02,SSW,203,1.1,1.8,41,0.00,,,0.00,WUHU216HW,2013-05-24 16:02:00,
2013-05-24 09:07:00,78.5,51.5,30.03,SSE,158,0.7,1.6,39,0.00,,,0.00,WUHU216HW,2013-05-24 16:07:00,
2013-05-24 09:12:00,79.4,51.5,30.03,NNE,23,0.7,1.6,38,0.00,,,0.00,WUHU216HW,2013-05-24 16:12:00,
2013-05-24 09:17:00,79.9,51.2,30.03,SSW,203,0.7,1.8,37,0.00,,,0.00,WUHU216HW,2013-05-24 16:17:00,
2013-05-24 09:22:00,81.0,49.1,30.02,South,180,1.3,1.6,33,0.00,,,0.00,WUHU216HW,2013-05-24 16:22:00,
2013-05-24 09:27:00,81.0,49.9,30.02,SSW,203,1.6,2.0,34,0.00,,,0.00,WUHU216HW,2013-05-24 16:27:00,
2013-05-24 09:32:00,80.8,50.5,30.02,SSE,158,0.2,2.0,35,0.00,,,0.00,WUHU216HW,2013-05-24 16:32:00,
2013-05-24 09:37:00,81.2,50.0,30.02,SW,225,1.6,1.8,34,0.00,,,0.00,WUHU216HW,2013-05-24 16:37:00,
2013-05-24 09:42:00,80.6,49.5,30.02,ENE,68,0.9,2.5,34,0.00,,,0.00,WUHU216HW,2013-05-24 16:42:00,
2013-05-24 09:47:00,78.8,47.9,30.02,SSE,158,0.7,2.5,34,0.00,,,0.00,WUHU216HW,2013-05-24 16:47:00,
2013-05-24 09:52:00,77.8,47.8,30.02,NW,315,1.1,2.7,35,0.00,,,0.00,WUHU216HW,2013-05-24 16:52:00,
2013-05-24 09:57:00,76.7,46.8,30.02,South,180,0.7,2.7,35,0.00,,,0.00,WUHU216HW,2013-05-24 16:57:00,
2013-05-24 10:02:00,75.8,47.5,30.02,South,180,0.9,1.3,37,0.00,,,0.00,WUHU216HW,2013-05-24 17:02:00,
2013-05-24 10:08:00,75.2,47.8,30.02,SW,225,0.4,1.1,38,0.00,,,0.00,WUHU216HW,2013-05-24 17:08:00,
2013-05-24 10:13:00,75.1,46.9,30.01,SSE,158,2.2,2.2,37,0.00,,,0.00,WUHU216HW,2013-05-24 17:13:00,
2013-05-24 10:18:00,74.7,47.4,30.01,SW,225,1.6,2.7,38,0.00,,,0.00,WUHU216HW,2013-05-24 17:18:00,
2013-05-24 10:23:00,74.3,47.8,30.01,SSE,158,0.4,2.7,39,0.00,,,0.00,WUHU216HW,2013-05-24 17:23:00,
2013-05-24 10:28:00,74.2,47.6,30.01,SW,225,0.0,1.1,39,0.00,,,0.00,WUHU216HW,2013-05-24 17:28:00,
2013-05-24 10:33:00,74.3,47.8,30.01,SE,135,1.1,1.1,39,0.00,,,0.00,WUHU216HW,2013-05-24 17:33:00,
2013-05-24 10:38:00,74.5,47.9,30.01,ENE,68,0.4,2.7,39,0.00,,,0.00,WUHU216HW,2013-05-24 17:38:00,
2013-05-24 10:43:00,74.3,47.0,30.01,NE,45,0.4,2.7,38,0.00,,,0.00,WUHU216HW,2013-05-24 17:43:00,
2013-05-24 10:48:00,73.8,46.5,30.01,SSW,203,1.8,4.7,38,0.00,,,0.00,WUHU216HW,2013-05-24 17:48:00,
2013-05-24 10:53:00,73.6,46.4,30.01,SSE,158,1.1,4.7,38,0.00,,,0.00,WUHU216HW,2013-05-24 17:53:00,
2013-05-24 10:58:00,74.2,46.8,30.01,SE,135,0.7,2.7,38,0.00,,,0.00,WUHU216HW,2013-05-24 17:58:00,
2013-05-24 11:03:00,74.5,47.2,30.01,SSW,203,1.8,2.7,38,0.00,,,0.00,WUHU216HW,2013-05-24 18:03:00,
2013-05-24 11:08:00,74.7,46.5,30.01,ESE,113,2.9,2.9,37,0.00,,,0.00,WUHU216HW,2013-05-24 18:08:00,
2013-05-24 11:13:00,74.5,47.2,30.01,West,270,1.3,3.8,38,0.00,,,0.00,WUHU216HW,2013-05-24 18:13:00,
2013-05-24 11:18:00,74.9,47.5,30.01,NE,45,1.1,3.8,38,0.00,,,0.00,WUHU216HW,2013-05-24 18:18:00,
2013-05-24 11:23:00,75.4,48.0,30.00,NNW,338,0.4,3.4,38,0.00,,,0.00,WUHU216HW,2013-05-24 18:23:00,
2013-05-24 11:29:00,75.6,47.3,30.00,South,180,4.0,4.0,37,0.00,,,0.00,WUHU216HW,2013-05-24 18:29:00,
2013-05-24 11:34:00,76.0,45.5,30.00,WNW,293,0.9,4.0,34,0.00,,,0.00,WUHU216HW,2013-05-24 18:34:00,
2013-05-24 11:39:00,75.8,46.0,30.00,NW,315,0.9,2.9,35,0.00,,,0.00,WUHU216HW,2013-05-24 18:39:00,
2013-05-24 11:44:00,75.6,46.6,30.00,SE,135,2.0,2.0,36,0.00,,,0.00,WUHU216HW,2013-05-24 18:44:00,
2013-05-24 11:49:00,76.0,47.0,30.00,SW,225,1.1,3.1,36,0.00,,,0.00,WUHU216HW,2013-05-24 18:49:00,
2013-05-24 11:54:00,76.7,48.3,30.00,NW,315,0.7,3.1,37,0.00,,,0.00,WUHU216HW,2013-05-24 18:54:00,
2013-05-24 11:59:00,77.0,47.2,30.00,NE,45,0.4,2.5,35,0.00,,,0.00,WUHU216HW,2013-05-24 18:59:00,
2013-05-24 12:04:00,77.2,47.4,30.00,SSE,158,3.6,3.6,35,0.00,,,0.00,WUHU216HW,2013-05-24 19:04:00,
2013-05-24 12:09:00,77.4,47.4,30.00,SSW,203,4.3,4.3,35,0.00,,,0.00,WUHU216HW,2013-05-24 19:09:00,
2013-05-24 12:14:00,77.4,46.0,30.00,NE,45,0.7,4.3,33,0.00,,,0.00,WUHU216HW,2013-05-24 19:14:00,
2013-05-24 12:19:00,77.6,46.9,29.99,SSE,158,1.6,4.3,34,0.00,,,0.00,WUHU216HW,2013-05-24 19:19:00,
2013-05-24 12:24:00,78.1,47.4,29.99,SE,135,2.7,4.0,34,0.00,,,0.00,WUHU216HW,2013-05-24 19:24:00,
2013-05-24 12:29:00,78.1,47.4,29.99,NNW,338,1.1,4.0,34,0.00,,,0.00,WUHU216HW,2013-05-24 19:29:00,
2013-05-24 12:34:00,77.8,47.0,29.99,SSE,158,3.4,3.4,34,0.00,,,0.00,WUHU216HW,2013-05-24 19:34:00,
2013-05-24 12:39:00,78.1,47.4,29.99,SSE,158,1.3,3.4,34,0.00,,,0.00,WUHU216HW,2013-05-24 19:39:00,
2013-05-24 12:45:00,78.3,47.4,29.99,WSW,248,2.5,3.4,34,0.00,,,0.00,WUHU216HW,2013-05-24 19:45:00,
2013-05-24 12:50:00,78.3,47.4,29.99,NNW,338,0.4,2.5,34,0.00,,,0.00,WUHU216HW,2013-05-24 19:50:00,
2013-05-24 12:55:00,78.1,46.5,29.98,NW,315,1.1,1.8,33,0.00,,,0.00,WUHU216HW,2013-05-24 19:55:00,
2013-05-24 13:00:00,78.1,46.5,29.98,SSE,158,2.5,3.1,33,0.00,,,0.00,WUHU216HW,2013-05-24 20:00:00,
2013-05-24 13:05:00,78.1,46.5,29.98,SSE,158,3.6,3.6,33,0.00,,,0.00,WUHU216HW,2013-05-24 20:05:00,
2013-05-24 13:10:00,78.3,46.7,29.98,NW,315,0.9,3.6,33,0.00,,,0.00,WUHU216HW,2013-05-24 20:10:00,
2013-05-24 13:15:00,78.3,46.7,29.98,SW,225,0.4,1.3,33,0.00,,,0.00,WUHU216HW,2013-05-24 20:15:00,
2013-05-24 13:20:00,78.7,47.0,29.98,ESE,113,1.1,3.1,33,0.00,,,0.00,WUHU216HW,2013-05-24 20:20:00,
2013-05-24 13:25:00,78.8,47.2,29.98,NNW,338,2.0,3.1,33,0.00,,,0.00,WUHU216HW,2013-05-24 20:25:00,
2013-05-24 13:30:00,78.8,47.2,29.98,WNW,293,0.4,3.4,33,0.00,,,0.00,WUHU216HW,2013-05-24 20:30:00,
2013-05-24 13:35:00,78.8,46.4,29.98,SSE,158,4.9,4.9,32,0.00,,,0.00,WUHU216HW,2013-05-24 20:35:00,
2013-05-24 13:40:00,79.0,46.5,29.98,NW,315,2.0,4.9,32,0.00,,,0.00,WUHU216HW,2013-05-24 20:40:00,
2013-05-24 13:46:00,78.8,45.6,29.98,NW,315,1.6,2.0,31,0.00,,,0.00,WUHU216HW,2013-05-24 20:46:00,
2013-05-24 13:51:00,78.8,45.6,29.97,NW,315,2.0,2.0,31,0.00,,,0.00,WUHU216HW,2013-05-24 20:51:00,
2013-05-24 13:56:00,78.8,45.6,29.97,SSE,158,5.6,5.6,31,0.00,,,0.00,WUHU216HW,2013-05-24 20:56:00,
2013-05-24 14:01:00,79.2,45.2,29.97,West,270,2.7,5.6,30,0.00,,,0.00,WUHU216HW,2013-05-24 21:01:00,
2013-05-24 14:06:00,79.4,46.1,29.97,ESE,113,3.8,4.7,31,0.00,,,0.00,WUHU216HW,2013-05-24 21:06:00,
2013-05-24 14:11:00,79.6,47.0,29.97,WSW,248,1.1,3.8,32,0.00,,,0.00,WUHU216HW,2013-05-24 21:11:00,
2013-05-24 14:16:00,79.9,46.5,29.97,NW,315,1.3,1.6,31,0.00,,,0.00,WUHU216HW,2013-05-24 21:16:00,
2013-05-24 14:21:00,79.7,46.5,29.97,NNW,338,1.8,2.5,31,0.00,,,0.00,WUHU216HW,2013-05-24 21:21:00,
2013-05-24 14:26:00,79.6,46.3,29.96,WSW,248,1.8,2.5,31,0.00,,,0.00,WUHU216HW,2013-05-24 21:26:00,
2013-05-24 14:31:00,79.7,46.5,29.96,NNW,338,1.1,3.6,31,0.00,,,0.00,WUHU216HW,2013-05-24 21:31:00,
2013-05-24 14:36:00,79.9,45.8,29.96,NNW,338,1.6,3.6,30,0.00,,,0.00,WUHU216HW,2013-05-24 21:36:00,
2013-05-24 14:41:00,79.9,45.8,29.96,NE,45,0.7,1.6,30,0.00,,,0.00,WUHU216HW,2013-05-24 21:41:00,
2013-05-24 14:46:00,80.1,46.0,29.96,SW,225,2.0,4.3,30,0.00,,,0.00,WUHU216HW,2013-05-24 21:46:00,
2013-05-24 14:52:00,80.3,45.1,29.96,SSW,203,2.0,4.3,29,0.00,,,0.00,WUHU216HW,2013-05-24 21:52:00,
2013-05-24 14:57:00,80.6,45.4,29.96,SW,225,2.7,2.9,29,0.00,,,0.00,WUHU216HW,2013-05-24 21:57:00,
2013-05-24 15:02:00,80.8,45.5,29.96,South,180,2.0,2.7,29,0.00,,,0.00,WUHU216HW,2013-05-24 22:02:00,
2013-05-24 15:07:00,80.8,44.5,29.96,WNW,293,0.7,4.7,28,0.00,,,0.00,WUHU216HW,2013-05-24 22:07:00,
2013-05-24 15:12:00,80.6,42.3,29.96,SE,135,2.9,4.7,26,0.00,,,0.00,WUHU216HW,2013-05-24 22:12:00,
2013-05-24 15:17:00,80.8,44.5,29.95,SSE,158,3.1,3.8,28,0.00,,,0.00,WUHU216HW,2013-05-24 22:17:00,
2013-05-24 15:22:00,81.0,43.6,29.96,East,90,4.0,4.0,27,0.00,,,0.00,WUHU216HW,2013-05-24 22:22:00,
2013-05-24 15:27:00,80.8,43.5,29.95,NNW,338,1.6,4.0,27,0.00,,,0.00,WUHU216HW,2013-05-24 22:27:00,
2013-05-24 15:32:00,80.5,41.0,29.95,ESE,113,2.0,3.6,25,0.00,,,0.00,WUHU216HW,2013-05-24 22:32:00,
2013-05-24 15:37:00,80.5,42.1,29.95,ESE,113,1.1,2.5,26,0.00,,,0.00,WUHU216HW,2013-05-24 22:37:00,
2013-05-24 15:42:00,80.6,42.3,29.95,SSE,158,3.6,4.0,26,0.00,,,0.00,WUHU216HW,2013-05-24 22:42:00,
2013-05-24 15:47:00,80.5,42.1,29.95,SSE,158,2.5,4.0,26,0.00,,,0.00,WUHU216HW,2013-05-24 22:47:00,
2013-05-24 15:52:00,80.3,40.9,29.95,SSW,203,2.5,4.3,25,0.00,,,0.00,WUHU216HW,2013-05-24 22:52:00,
2013-05-24 15:57:00,80.1,41.8,29.95,NW,315,0.4,4.3,26,0.00,,,0.00,WUHU216HW,2013-05-24 22:57:00,
2013-05-24 16:02:00,80.1,41.8,29.95,NNW,338,1.6,1.8,26,0.00,,,0.00,WUHU216HW,2013-05-24 23:02:00,
2013-05-24 16:07:00,80.1,40.8,29.95,NNW,338,0.9,4.0,25,0.00,,,0.00,WUHU216HW,2013-05-24 23:07:00,
2013-05-24 16:13:00,79.9,40.6,29.94,ESE,113,4.3,4.3,25,0.00,,,0.00,WUHU216HW,2013-05-24 23:13:00,
2013-05-24 16:18:00,80.1,40.8,29.94,SE,135,1.6,6.3,25,0.00,,,0.00,WUHU216HW,2013-05-24 23:18:00,
2013-05-24 16:23:00,79.9,40.6,29.94,SE,135,1.3,6.3,25,0.00,,,0.00,WUHU216HW,2013-05-24 23:23:00,
2013-05-24 16:28:00,79.7,41.5,29.94,NNW,338,0.9,3.4,26,0.00,,,0.00,WUHU216HW,2013-05-24 23:28:00,
2013-05-24 16:33:00,79.6,40.2,29.94,NW,315,0.7,4.3,25,0.00,,,0.00,WUHU216HW,2013-05-24 23:33:00,
2013-05-24 16:38:00,79.2,37.8,29.95,SE,135,1.8,6.9,23,0.00,,,0.00,WUHU216HW,2013-05-24 23:38:00,
2013-05-24 16:43:00,79.2,38.9,29.94,SW,225,1.8,6.9,24,0.00,,,0.00,WUHU216HW,2013-05-24 23:43:00,
2013-05-24 16:48:00,79.2,36.8,29.94,SSW,203,2.5,4.7,22,0.00,,,0.00,WUHU216HW,2013-05-24 23:48:00,
2013-05-24 16:53:00,79.0,37.7,29.94,South,180,1.1,4.7,23,0.00,,,0.00,WUHU216HW,2013-05-24 23:53:00,
2013-05-24 16:58:00,78.8,37.5,29.94,NNW,338,1.6,4.3,23,0.00,,,0.00,WUHU216HW,2013-05-24 23:58:00,
2013-05-24 17:03:00,78.8,35.5,29.94,SE,135,0.2,2.5,21,0.00,,,0.00,WUHU216HW,2013-05-25 00:03:00,
2013-05-24 17:08:00,78.7,36.4,29.94,SW,225,2.5,2.5,22,0.00,,,0.00,WUHU216HW,2013-05-25 00:08:00,
2013-05-24 17:13:00,78.5,36.2,29.94,WSW,248,0.9,3.4,22,0.00,,,0.00,WUHU216HW,2013-05-25 00:13:00,
2013-05-24 17:18:00,78.5,37.3,29.93,SSE,158,0.4,3.4,23,0.00,,,0.00,WUHU216HW,2013-05-25 00:18:00,
2013-05-24 17:23:00,78.5,32.4,29.93,SSE,158,6.0,6.0,19,0.00,,,0.00,WUHU216HW,2013-05-25 00:23:00,
2013-05-24 17:28:00,78.1,34.8,29.93,SW,225,3.1,6.0,21,0.00,,,0.00,WUHU216HW,2013-05-25 00:28:00,
2013-05-24 17:33:00,77.9,35.7,29.93,WNW,293,1.1,4.5,22,0.00,,,0.00,WUHU216HW,2013-05-25 00:33:00,
2013-05-24 17:39:00,77.9,35.7,29.93,NW,315,1.1,4.5,22,0.00,,,0.00,WUHU216HW,2013-05-25 00:39:00,
2013-05-24 17:44:00,77.8,36.6,29.93,WNW,293,1.1,2.9,23,0.00,,,0.00,WUHU216HW,2013-05-25 00:44:00,
2013-05-24 17:49:00,77.6,35.5,29.93,SSW,203,3.4,3.4,22,0.00,,,0.00,WUHU216HW,2013-05-25 00:49:00,
2013-05-24 17:54:00,77.4,34.3,29.93,West,270,2.5,5.4,21,0.00,,,0.00,WUHU216HW,2013-05-25 00:54:00,
2013-05-24 17:59:00,77.2,35.2,29.93,South,180,2.9,5.4,22,0.00,,,0.00,WUHU216HW,2013-05-25 00:59:00,
2013-05-24 18:04:00,77.0,36.1,29.93,SSE,158,3.1,5.1,23,0.00,,,0.00,WUHU216HW,2013-05-25 01:04:00,
2013-05-24 18:09:00,76.7,36.8,29.93,SSE,158,0.4,5.1,24,0.00,,,0.00,WUHU216HW,2013-05-25 01:09:00,
2013-05-24 18:14:00,76.7,36.8,29.93,SSW,203,1.8,3.1,24,0.00,,,0.00,WUHU216HW,2013-05-25 01:14:00,
2013-05-24 18:19:00,76.5,36.6,29.93,SSW,203,3.8,3.8,24,0.00,,,0.00,WUHU216HW,2013-05-25 01:19:00,
2013-05-24 18:24:00,76.3,36.6,29.93,SW,225,2.2,3.8,24,0.00,,,0.00,WUHU216HW,2013-05-25 01:24:00,
2013-05-24 18:29:00,76.1,35.4,29.93,SSE,158,4.0,4.9,23,0.00,,,0.00,WUHU216HW,2013-05-25 01:29:00,
2013-05-24 18:34:00,76.0,35.2,29.93,SSE,158,2.5,4.9,23,0.00,,,0.00,WUHU216HW,2013-05-25 01:34:00,
2013-05-24 18:39:00,75.6,35.9,29.93,SW,225,1.1,2.5,24,0.00,,,0.00,WUHU216HW,2013-05-25 01:39:00,
2013-05-24 18:45:00,75.4,36.8,29.93,SSW,203,1.3,2.2,25,0.00,,,0.00,WUHU216HW,2013-05-25 01:45:00,
2013-05-24 18:50:00,75.1,37.5,29.93,SSW,203,2.5,2.5,26,0.00,,,0.00,WUHU216HW,2013-05-25 01:50:00,
2013-05-24 18:55:00,74.9,39.4,29.93,NW,315,1.1,2.9,28,0.00,,,0.00,WUHU216HW,2013-05-25 01:55:00,
2013-05-24 19:00:00,74.7,40.2,29.93,SW,225,3.8,3.8,29,0.00,,,0.00,WUHU216HW,2013-05-25 02:00:00,
2013-05-24 19:05:00,74.3,40.0,29.93,SSE,158,1.6,3.8,29,0.00,,,0.00,WUHU216HW,2013-05-25 02:05:00,
2013-05-24 19:10:00,74.2,40.8,29.93,SSE,158,3.6,4.0,30,0.00,,,0.00,WUHU216HW,2013-05-25 02:10:00,
2013-05-24 19:15:00,73.8,40.5,29.93,SSW,203,2.5,4.0,30,0.00,,,0.00,WUHU216HW,2013-05-25 02:15:00,
2013-05-24 19:20:00,73.3,40.8,29.94,SSE,158,2.5,4.0,31,0.00,,,0.00,WUHU216HW,2013-05-25 02:20:00,
2013-05-24 19:25:00,72.9,41.2,29.94,SW,225,3.4,4.0,32,0.00,,,0.00,WUHU216HW,2013-05-25 02:25:00,
2013-05-24 19:30:00,72.5,41.7,29.94,SSW,203,1.1,3.8,33,0.00,,,0.00,WUHU216HW,2013-05-25 02:30:00,
2013-05-24 19:35:00,72.4,41.5,29.94,South,180,1.6,2.2,33,0.00,,,0.00,WUHU216HW,2013-05-25 02:35:00,
2013-05-24 19:40:00,72.0,40.5,29.94,SE,135,1.6,2.2,32,0.00,,,0.00,WUHU216HW,2013-05-25 02:40:00,
2013-05-24 19:46:00,71.6,41.0,29.94,South,180,3.4,3.4,33,0.00,,,0.00,WUHU216HW,2013-05-25 02:46:00,
2013-05-24 19:51:00,71.1,40.4,29.94,SW,225,2.5,4.3,33,0.00,,,0.00,WUHU216HW,2013-05-25 02:51:00,
2013-05-24 19:56:00,70.6,40.0,29.94,SSE,158,1.1,4.3,33,0.00,,,0.00,WUHU216HW,2013-05-25 02:56:00,
2013-05-24 20:01:00,70.2,40.3,29.94,SSW,203,2.5,4.7,34,0.00,,,0.00,WUHU216HW,2013-05-25 03:01:00,
2013-05-24 20:06:00,69.8,40.1,29.94,SSE,158,0.9,4.7,34,0.00,,,0.00,WUHU216HW,2013-05-25 03:06:00,
2013-05-24 20:11:00,69.5,40.4,29.94,SE,135,2.5,3.8,35,0.00,,,0.00,WUHU216HW,2013-05-25 03:11:00,
2013-05-24 20:16:00,68.9,40.7,29.94,SE,135,2.2,4.7,36,0.00,,,0.00,WUHU216HW,2013-05-25 03:16:00,
2013-05-24 20:21:00,68.6,41.1,29.94,SE,135,1.1,4.9,37,0.00,,,0.00,WUHU216HW,2013-05-25 03:21:00,
2013-05-24 20:26:00,68.2,40.8,29.94,SSW,203,1.8,4.9,37,0.00,,,0.00,WUHU216HW,2013-05-25 03:26:00,
2013-05-24 20:31:00,68.0,41.4,29.94,SSE,158,2.5,3.8,38,0.00,,,0.00,WUHU216HW,2013-05-25 03:31:00,
2013-05-24 20:36:00,67.7,41.0,29.94,SSW,203,2.5,3.8,38,0.00,,,0.00,WUHU216HW,2013-05-25 03:36:00,
2013-05-24 20:41:00,67.3,41.5,29.94,SSE,158,1.1,3.8,39,0.00,,,0.00,WUHU216HW,2013-05-25 03:41:00,
2013-05-24 20:46:00,67.0,40.4,29.94,South,180,2.5,3.8,38,0.00,,,0.00,WUHU216HW,2013-05-25 03:46:00,
2013-05-24 20:51:00,66.6,40.2,29.95,SSE,158,2.2,3.8,38,0.00,,,0.00,WUHU216HW,2013-05-25 03:51:00,
2013-05-24 20:56:00,66.2,39.8,29.95,SSW,203,3.6,4.0,38,0.00,,,0.00,WUHU216HW,2013-05-25 03:56:00,
2013-05-24 21:01:00,66.1,39.6,29.95,NW,315,0.9,4.3,38,0.00,,,0.00,WUHU216HW,2013-05-25 04:01:00,
2013-05-24 21:02:00,65.9,40.1,29.95,SSW,203,3.4,4.3,39,0.00,,,0.00,WUHU216HW,2013-05-25 04:02:00,
2013-05-24 21:07:00,65.7,40.1,29.95,SSE,158,2.5,3.8,39,0.00,,,0.00,WUHU216HW,2013-05-25 04:07:00,
2013-05-24 21:12:00,65.3,39.7,29.95,SSE,158,1.1,3.4,39,0.00,,,0.00,WUHU216HW,2013-05-25 04:12:00,
2013-05-24 21:17:00,65.0,39.3,29.95,SSW,203,2.0,3.4,39,0.00,,,0.00,WUHU216HW,2013-05-25 04:17:00,
2013-05-24 21:22:00,64.8,40.5,29.95,SSW,203,4.7,4.7,41,0.00,,,0.00,WUHU216HW,2013-05-25 04:22:00,
2013-05-24 21:28:00,64.4,40.1,29.95,SSW,203,1.3,6.3,41,0.00,,,0.00,WUHU216HW,2013-05-25 04:28:00,
2013-05-24 21:33:00,64.3,41.1,29.95,SSW,203,1.8,6.3,43,0.00,,,0.00,WUHU216HW,2013-05-25 04:33:00,
2013-05-24 21:38:00,63.9,40.9,29.95,SSE,158,1.1,6.3,43,0.00,,,0.00,WUHU216HW,2013-05-25 04:38:00,
2013-05-24 21:43:00,63.7,41.2,29.95,WSW,248,1.8,3.4,44,0.00,,,0.00,WUHU216HW,2013-05-25 04:43:00,
2013-05-24 21:48:00,63.5,42.2,29.95,ESE,113,4.0,4.0,46,0.00,,,0.00,WUHU216HW,2013-05-25 04:48:00,
2013-05-24 21:53:00,63.4,42.1,29.95,SSE,158,2.5,4.7,46,0.00,,,0.00,WUHU216HW,2013-05-25 04:53:00,
2013-05-24 21:58:00,63.0,41.8,29.95,SSE,158,3.1,4.7,46,0.00,,,0.00,WUHU216HW,2013-05-25 04:58:00,
2013-05-24 22:03:00,63.0,41.2,29.95,SW,225,3.6,3.6,45,0.00,,,0.00,WUHU216HW,2013-05-25 05:03:00,
2013-05-24 22:08:00,62.6,42.6,29.95,SSW,203,2.9,4.0,48,0.00,,,0.00,WUHU216HW,2013-05-25 05:08:00,
2013-05-24 22:13:00,62.3,42.3,29.95,South,180,1.6,5.4,48,0.00,,,0.00,WUHU216HW,2013-05-25 05:13:00,
2013-05-24 22:18:00,62.3,43.4,29.95,SSE,158,2.0,5.4,50,0.00,,,0.00,WUHU216HW,2013-05-25 05:18:00,
2013-05-24 22:23:00,61.9,42.5,29.95,SE,135,2.5,4.7,49,0.00,,,0.00,WUHU216HW,2013-05-25 05:23:00,
2013-05-24 22:28:00,61.7,43.4,29.95,SSE,158,5.1,5.1,51,0.00,,,0.00,WUHU216HW,2013-05-25 05:28:00,
2013-05-24 22:33:00,61.6,42.8,29.96,SE,135,1.3,5.1,50,0.00,,,0.00,WUHU216HW,2013-05-25 05:33:00,
2013-05-24 22:38:00,61.2,42.9,29.96,SSE,158,1.8,4.7,51,0.00,,,0.00,WUHU216HW,2013-05-25 05:38:00,
2013-05-24 22:44:00,61.0,43.3,29.96,WSW,248,2.0,5.6,52,0.00,,,0.00,WUHU216HW,2013-05-25 05:44:00,
2013-05-24 22:49:00,60.8,42.6,29.96,SSW,203,2.5,5.6,51,0.00,,,0.00,WUHU216HW,2013-05-25 05:49:00,
2013-05-24 22:54:00,60.5,43.8,29.97,South,180,4.7,4.7,54,0.00,,,0.00,WUHU216HW,2013-05-25 05:54:00,
2013-05-24 22:59:00,60.1,42.9,29.97,WSW,248,2.5,5.4,53,0.00,,,0.00,WUHU216HW,2013-05-25 05:59:00,
2013-05-24 23:04:00,59.9,42.3,29.97,SSW,203,1.1,5.4,52,0.00,,,0.00,WUHU216HW,2013-05-25 06:04:00,
2013-05-24 23:09:00,59.8,42.1,29.97,SSE,158,3.1,4.0,52,0.00,,,0.00,WUHU216HW,2013-05-25 06:09:00,
2013-05-24 23:14:00,59.4,42.2,29.97,SW,225,2.0,4.0,53,0.00,,,0.00,WUHU216HW,2013-05-25 06:14:00,
2013-05-24 23:19:00,59.4,42.8,29.97,SSE,158,2.5,3.6,54,0.00,,,0.00,WUHU216HW,2013-05-25 06:19:00,
2013-05-24 23:24:00,59.0,42.8,29.97,WSW,248,4.7,4.7,55,0.00,,,0.00,WUHU216HW,2013-05-25 06:24:00,
2013-05-24 23:29:00,58.9,42.2,29.97,ESE,113,0.2,4.7,54,0.00,,,0.00,WUHU216HW,2013-05-25 06:29:00,
2013-05-24 23:34:00,58.7,43.0,29.97,SSE,158,2.5,2.5,56,0.00,,,0.00,WUHU216HW,2013-05-25 06:34:00,
2013-05-24 23:39:00,58.5,42.4,29.97,ESE,113,0.9,3.4,55,0.00,,,0.00,WUHU216HW,2013-05-25 06:39:00,
2013-05-24 23:44:00,58.3,42.2,29.97,SSE,158,2.0,3.4,55,0.00,,,0.00,WUHU216HW,2013-05-25 06:44:00,
2013-05-24 23:49:00,58.1,42.5,29.97,SSW,203,3.4,3.4,56,0.00,,,0.00,WUHU216HW,2013-05-25 06:49:00,
2013-05-24 23:54:00,58.1,42.5,29.97,SSE,158,0.7,3.4,56,0.00,,,0.00,WUHU216HW,2013-05-25 06:54:00,
2013-05-24 23:59:00,58.0,42.3,29.97,SSE,158,0.9,3.1,56,0.00,,,0.00,WUHU216HW,2013-05-25 06:59:00,